Starlink 2701

operational
NORAD ID: 48656 Int'l Des: 2021-044 Owner: SPXS Country: US Constellation: starlink
LEOCIRCULARSTARLINK_TYPE

Über Starlink 2701

Beschreibung wird geladen...

Live-Position

3D-Globus wird geladen...

Nächste Überflüge

Höhenverlauf

Altitude vs Time

uPlot chart will show altitude changes over time

Zweizeiliger Elementsatz

1 48656U 21044U 25351.79646442 .00002360 00000-0 17724-3 0 9993
2 48656 53.0550 129.2496 0001247 88.2479 271.8653 15.06407955251365
Epoch: 17. Dez. 2025 • Age: 13 hours

Aktueller Status

Höhe 548.4 km
Geschwindigkeit 7.59 km/s
Subsatellitenpunkt 30.83°N, 54.28°W
Startdatum 26. Mai 2021
Alter 4.5 years
Typ internet

Technische Details

Klassifizierung Payload
Masse 260.00 kg
Trockenmasse 248.00 kg
Gesamtmasse 260.00 kg
Länge 0.20 m
Durchmesser 2.80 m
Spannweite 9.00 m
Form Box + pan
Hersteller SPXS
Bus-Typ Starlink
Phasenstatus In Orbit
Besitzer/Staat SPXS/US

Große Konstellationen

Loading constellations...